RH
79 77 74 72 70 69 70 72 75 75 76 75 74 72 72 71 70 73 75 77 81 86 89 90 90 88 85 80 76 72 69 66 64 63 61 59 56 55 53 51 50 48 47 46 45 45 44 44 43 42 40 38 36 35 33 32 31 30 30 29 28 28 27 26 26 26 25 25 24 24 24 24 24 24 23 23 23 23 22 22 22 22 21 20 20 19 20 20 20 21 21 22 21 21 23 23 24
88 86 83 80 78 78 80 80 79 76 75 73 71 71 71 71 73 76 80 84 86 87 84 81 77 74 71 68 66 66 65 64 62 60 57 55 52 51 49 48 47 46 46 45 44 43 42 41 39 38 37 35 34 33 32 32 31 31 30 29 29 28 28 27 26 26 25 25 25 24 24 24 24 24 23 23 23 23 22 22 22 22 22 21 21 19 19 19 19 20 20 20 21 21 21 22 22
87 84 82 82 83 84 84 83 84 81 79 79 79 80 79 81 83 86 89 88 84 78 74 71 69 68 68 67 66 64 61 58 55 53 51 49 48 48 47 47 46 46 44 43 42 40 39 38 37 36 35 34 34 33 33 32 32 31 30 30 29 28 28 27 26 26 26 25 24 24 23 23 23 22 22 22 22 21 21 21 21 21 21 21 21 20 19 19 18 18 19 19 19 21 20 21 21
80 79 80 80 83 83 81 81 82 82 82 83 85 86 87 88 89 88 84 76 68 63 62 63 65 64 62 61 57 54 53 51 51 50 50 50 50 50 49 48 46 44 42 41 39 38 38 36 36 36 35 35 34 34 33 32 31 30 30 29 27 27 26 25 25 24 24 24 23 23 22 22 21 21 21 21 20 20 19 19 19 19 19 19 20 19 19 18 18 17 17 18 18 19 19 19 20
79 80 81 83 84 84 84 85 85 86 88 89 91 90 88 86 82 75 67 60 56 57 59 60 60 57 55 55 53 54 55 55 55 55 55 54 52 50 47 45 42 41 40 39 38 38 38 37 37 36 36 35 34 33 32 31 29 28 27 26 25 24 23 22 22 21 21 20 20 20 19 19 18 19 18 18 18 17 17 17 16 16 16 16 17 17 17 17 17 17 16 16 17 17 18 18 19
81 82 82 84 86 88 92 94 95 96 95 94 91 87 82 76 68 62 57 57 57 58 59 57 58 59 60 61 61 63 62 60 59 56 54 51 48 45 43 41 41 40 40 39 39 38 38 37 36 35 34 32 31 30 28 27 25 24 22 21 20 19 18 17 17 17 16 16 16 16 15 15 15 15 14 14 14 14 14 14 14 13 14 13 14 14 14 14 14 15 15 15 15 15 16 17 18
87 90 92 94 97 99 99 99 98 95 91 87 82 76 70 65 61 59 59 60 60 61 64 66 69 70 70 69 66 64 61 57 54 51 48 45 43 42 41 41 40 40 39 39 37 37 36 34 33 31 30 28 27 24 23 21 20 18 17 16 15 14 14 13 13 12 12 12 12 12 12 12 12 12 12 12 11 12 11 11 11 11 11 11 11 11 11 11 12 12 13 13 13 14 14 15 16
96 99 102 104 106 103 97 93 88 82 77 73 68 64 62 63 64 65 67 70 73 76 78 77 75 71 68 64 60 57 54 51 48 46 44 42 41 40 40 40 39 38 37 36 34 33 31 30 29 27 25 23 21 19 18 16 15 14 13 13 12 12 11 11 11 10 10 10 10 10 10 9 10 10 10 10 10 10 10 10 10 10 9 9 9 9 9 9 9 10 10 11 11 12 12 13 14
97 100 103 103 98 91 84 76 69 65 63 62 63 65 69 72 75 78 80 82 82 82 77 70 66 63 59 56 53 51 48 46 44 43 42 41 40 40 39 38 37 35 34 32 30 29 27 25 23 21 20 18 17 16 15 14 13 13 12 12 12 12 11 11 11 11 10 10 10 9 9 9 9 9 9 9 9 9 9 9 9 9 9 9 9 8 8 8 8 8 8 8 9 9 10 10 11
96 92 91 87 77 69 64 60 62 66 68 72 76 79 82 83 84 84 82 80 76 72 66 62 59 56 53 51 48 47 45 44 43 42 41 40 38 37 36 35 33 32 30 28 26 24 22 20 19 18 17 16 15 14 14 14 13 13 13 13 13 13 12 12 12 12 11 11 11 10 10 10 9 9 9 9 9 9 8 9 9 9 9 8 8 8 8 8 8 7 7 7 7 7 8 9 9
97 88 80 72 62 59 59 66 76 84 86 88 89 88 86 84 82 79 75 72 68 63 60 57 54 52 50 48 47 45 44 43 42 40 39 37 35 34 32 31 30 28 26 24 22 20 19 18 17 17 16 15 15 15 14 14 14 15 15 14 14 14 14 13 13 13 12 12 11 11 11 10 10 10 9 9 9 9 8 8 9 8 8 9 8 9 8 8 8 8 8 7 7 7 7 7 7
82 75 68 63 65 72 80 87 93 95 95 92 88 85 82 79 76 73 70 66 62 59 56 54 51 50 49 47 46 44 43 42 40 38 36 35 33 32 30 29 26 25 22 21 20 19 18 17 17 16 16 16 16 16 16 16 16 16 16 15 15 15 14 14 14 13 13 12 12 12 11 11 11 10 10 10 9 9 8 8 8 8 8 8 8 8 8 8 8 8 8 8 8 8 7 7 7
59 60 65 75 85 94 98 97 96 93 90 87 83 80 77 74 72 68 65 61 58 56 53 52 50 50 48 47 45 43 41 39 37 36 34 33 31 29 27 25 23 22 20 20 19 18 18 17 18 18 18 18 18 18 18 18 18 18 17 17 16 15 15 14 14 13 13 13 12 12 11 11 10 10 10 10 10 9 8 8 8 8 8 8 8 8 8 8 8 8 8 8 8 8 8 7 7
74 80 87 95 97 97 94 92 90 88 84 81 78 75 72 70 68 64 61 58 55 54 53 52 51 49 46 45 43 41 39 37 36 34 32 30 28 26 24 22 21 21 20 19 19 19 19 19 19 19 19 19 19 19 19 19 19 19 18 17 16 16 15 14 14 13 13 12 12 12 11 11 10 10 10 10 10 9 9 9 8 8 9 8 9 8 8 8 8 8 8 8 8 8 8 8 8
91 94 94 93 92 90 89 88 85 82 80 77 75 72 70 67 64 61 58 57 56 54 53 51 49 46 44 43 42 40 37 35 33 31 29 27 25 23 22 21 20 20 19 19 19 19 19 19 20 19 20 19 20 20 19 19 18 18 17 17 16 15 15 14 14 13 12 12 11 11 11 10 10 10 10 10 9 10 10 9 10 9 9 9 9 9 8 9 8 8 8 8 8 8 8 7 8
91 91 90 89 87 85 83 82 81 80 79 76 74 71 67 64 61 59 58 57 56 53 51 49 47 45 43 42 40 37 34 32 30 28 26 24 23 22 21 21 20 20 19 20 20 20 20 20 20 20 20 20 20 19 19 19 18 18 17 16 16 15 14 13 13 12 11 11 10 10 10 10 10 10 9 9 9 9 10 10 10 10 10 10 9 9 9 9 9 9 8 8 8 7 8 7 7
87 85 84 83 81 82 82 81 81 81 78 74 71 68 66 64 62 61 59 57 54 51 49 48 46 44 41 39 37 34 31 29 27 26 24 23 23 21 21 20 20 20 20 20 20 20 20 20 20 20 20 20 20 20 20 19 19 18 17 16 15 14 14 14 14 14 14 13 13 12 13 13 12 12 11 11 11 11 11 11 10 10 10 10 10 10 9 10 9 9 9 8 9 8 8 7 7
76 78 80 83 85 86 86 84 82 79 76 73 71 69 68 66 64 61 58 55 52 50 48 47 45 41 39 36 34 32 29 28 26 25 24 23 21 20 20 20 20 20 20 20 20 20 20 20 20 20 20 20 20 20 19 18 18 17 17 17 17 18 18 19 20 20 20 18 18 18 17 17 16 15 15 14 14 14 14 13 12 11 10 10 10 10 10 10 10 9 9 9 9 8 8 8 7
86 89 92 93 92 89 87 84 81 79 78 75 73 71 70 68 64 59 55 52 50 49 47 46 43 40 37 35 32 30 28 27 26 24 23 21 20 20 20 20 20 20 20 20 20 21 21 21 21 21 21 20 20 19 19 19 18 19 20 22 23 24 25 25 25 24 23 22 21 21 20 19 17 17 16 16 16 17 17 16 16 14 12 11 10 10 10 10 10 10 9 10 9 9 8 8 8
100 99 97 94 91 88 85 83 82 81 79 77 75 73 70 66 60 56 52 50 50 50 48 45 41 39 36 34 31 29 28 26 24 22 21 21 19 20 20 20 20 21 20 20 21 21 22 22 22 21 20 20 20 20 21 22 23 25 26 27 28 29 28 26 24 22 21 21 20 19 19 17 16 15 15 15 15 17 18 19 19 19 17 15 13 12 11 10 10 10 9 10 9 9 9 8 8
100 97 94 91 88 86 85 84 83 81 79 78 76 73 68 62 56 53 51 51 51 49 48 45 41 38 37 35 32 30 29 26 24 22 21 21 20 21 21 20 20 21 21 22 22 22 23 23 22 22 21 22 22 24 25 27 28 29 30 31 32 30 26 21 19 19 18 19 18 17 17 16 16 15 16 16 16 18 19 21 22 22 21 19 18 15 14 13 12 11 11 10 10 9 9 9 8
96 93 89 87 86 86 85 84 83 82 82 80 75 69 63 58 53 50 50 52 52 50 48 46 43 40 39 37 34 31 29 26 24 23 22 21 21 21 20 21 21 21 22 23 23 23 23 23 23 23 24 25 26 28 28 29 31 32 33 34 31 25 20 18 18 18 19 20 20 20 20 20 20 20 20 20 20 21 22 23 23 23 22 20 19 18 16 15 14 13 12 11 11 10 9 9 8
90 88 86 86 87 86 86 85 85 85 84 78 72 65 60 56 52 50 52 54 54 53 50 48 46 44 42 39 35 32 28 26 24 23 23 22 21 21 21 21 21 23 23 23 23 23 24 24 25 26 27 28 29 30 31 32 34 36 37 33 26 21 20 22 23 24 24 26 26 26 26 25 25 25 25 25 24 25 24 24 24 24 23 23 22 21 19 18 18 16 15 14 12 12 10 9 9
89 89 89 89 89 88 87 87 88 86 81 75 69 64 60 56 52 52 55 58 58 57 54 51 49 47 45 41 36 31 27 24 24 23 23 22 22 21 21 22 23 24 24 24 24 24 26 26 28 28 29 30 31 34 36 36 36 37 34 27 23 23 25 26 27 29 29 29 29 29 28 28 28 28 28 28 27 27 27 27 27 27 26 26 26 25 25 24 23 22 20 18 16 16 14 13 12
92 92 91 89 89 88 89 91 89 84 77 73 69 65 62 58 55 55 57 62 63 62 59 56 54 52 48 43 37 30 26 24 23 23 22 22 22 22 23 25 25 25 25 25 26 27 29 29 30 30 31 33 36 37 38 37 35 33 27 24 26 28 29 29 30 31 31 31 30 29 29 29 29 29 29 29 29 29 29 29 28 29 29 29 29 28 29 28 27 26 25 23 21 20 18 17 16
93 92 90 90 91 93 96 95 89 81 76 75 74 70 66 62 59 59 59 64 67 66 62 59 57 56 51 44 35 28 25 23 23 23 22 22 23 25 26 26 26 27 27 28 29 31 32 33 35 36 36 36 37 36 34 32 29 26 24 26 29 30 30 30 31 30 30 30 29 30 30 30 30 30 31 31 31 31 31 32 31 32 32 31 32 32 32 32 31 30 28 27 25 24 22 21 19
92 90 91 95 99 101 99 93 86 81 81 82 82 76 70 65 63 62 60 64 69 67 62 59 58 55 49 39 30 27 24 23 24 23 23 24 26 26 26 27 29 29 30 32 34 36 37 37 37 36 35 33 32 29 26 24 23 24 27 30 30 30 30 29 29 29 29 30 30 31 31 32 32 31 32 32 33 34 33 34 34 34 35 35 35 36 35 35 35 33 31 30 28 26 25 23 22
91 92 96 101 104 103 97 91 89 88 92 93 88 81 73 65 64 63 60 63 68 65 61 59 56 50 41 32 28 26 24 24 24 24 25 27 27 28 30 30 30 32 36 39 39 37 34 32 30 28 27 25 23 22 21 22 24 28 30 31 31 30 29 28 29 29 30 31 32 32 33 33 34 34 33 34 34 35 35 35 35 36 36 37 36 37 37 36 35 34 32 30 29 28 26 25 23
92 96 103 107 106 102 96 91 92 94 98 98 89 84 77 67 65 65 61 62 64 63 61 59 53 43 34 30 28 26 25 25 24 25 27 27 29 31 31 31 35 42 43 39 33 28 25 22 21 20 20 20 20 22 24 27 29 30 30 30 30 29 29 30 30 31 32 33 34 35 36 36 36 35 35 34 35 35 37 37 37 38 37 37 37 36 35 34 34 32 31 30 29 28 27 26 25
99 104 109 109 104 101 97 90 91 97 101 95 86 84 78 66 63 66 65 65 65 64 61 56 46 36 32 29 28 27 25 25 25 27 28 30 32 32 33 39 45 44 36 28 23 20 18 18 18 18 19 22 25 27 28 29 29 30 30 30 29 30 31 32 32 33 34 34 36 37 37 38 36 36 35 35 35 35 36 37 37 38 39 39 38 36 35 33 32 31 30 30 29 28 27 27 26
109 111 111 108 103 99 95 92 92 98 102 94 82 78 74 65 60 62 66 69 70 68 60 49 38 32 31 29 26 25 24 26 27 28 31 34 34 36 42 45 40 30 24 21 20 20 21 22 22 22 23 26 28 29 29 29 29 29 30 29 30 31 32 32 32 33 34 35 36 37 37 37 36 36 36 36 36 35 35 35 35 36 37 39 38 36 35 33 31 30 29 28 28 28 27 27 26
110 109 105 103 101 95 92 97 98 97 99 91 78 74 73 69 64 62 64 66 68 66 55 41 32 29 28 26 25 24 25 28 29 32 36 37 38 43 43 34 25 22 22 24 25 27 27 27 28 28 28 28 28 28 29 29 29 29 30 31 31 32 32 31 32 32 34 35 36 36 36 35 36 36 37 38 38 37 36 35 34 35 36 37 38 37 35 33 31 29 28 27 27 27 27 26 26
104 103 103 101 98 93 91 101 104 97 92 84 74 71 73 73 69 67 67 66 66 61 46 32 28 27 25 25 24 25 28 29 32 38 40 40 42 39 30 23 23 26 27 29 30 31 30 30 30 30 29 29 28 28 28 29 29 29 30 31 32 32 33 32 33 34 35 36 36 36 36 35 36 37 39 40 39 38 38 37 35 35 36 37 37 36 34 31 29 28 27 26 26 26 26 26 26
101 100 102 100 97 96 96 103 104 95 87 80 71 69 77 81 77 72 69 64 59 49 35 27 26 25 24 25 25 28 30 32 40 45 42 40 35 27 23 25 28 30 32 32 32 30 30 30 29 29 29 29 30 29 30 30 31 31 31 31 33 33 34 35 35 36 37 37 37 37 37 37 37 39 41 42 41 39 38 37 36 35 36 36 35 34 32 29 28 27 26 26 26 26 25 26 25
99 95 95 97 98 101 100 99 96 88 81 75 68 68 77 82 79 76 69 55 41 31 25 25 24 24 25 26 28 31 32 42 50 45 37 32 25 24 27 30 32 33 33 32 31 30 29 29 29 30 30 31 32 32 33 33 34 35 35 35 36 36 37 38 39 39 39 39 38 38 38 38 39 41 43 43 42 40 39 38 36 35 34 34 33 32 30 28 27 26 26 26 25 25 25 25 25
96 96 96 98 99 100 96 91 87 79 72 70 68 70 76 78 78 74 61 42 29 24 23 24 24 26 27 28 31 33 41 56 54 37 30 27 25 29 32 34 35 34 32 31 30 30 30 31 32 32 33 34 35 36 37 37 38 38 39 40 40 40 40 41 41 41 41 40 40 39 40 41 42 43 44 44 43 41 38 37 36 35 33 33 33 32 30 28 27 26 26 26 25 25 25 24 24
95 94 92 90 89 88 86 81 78 72 68 71 71 72 78 79 74 62 45 31 25 24 25 25 26 27 28 31 33 39 57 65 47 29 27 27 29 33 34 36 36 33 33 32 32 33 34 35 35 36 37 38 38 40 41 42 42 42 43 44 44 44 43 43 43 43 43 43 43 43 43 44 45 45 44 43 41 39 37 36 36 35 34 34 34 33 31 29 27 27 26 26 26 25 25 24 23
88 86 84 81 78 77 77 74 72 70 70 74 73 74 79 73 59 44 32 26 24 25 26 27 28 30 31 34 39 55 70 59 34 25 28 31 34 35 36 37 35 34 34 33 35 36 37 38 40 41 42 43 44 45 46 47 48 47 47 48 47 47 46 45 46 46 47 47 48 48 47 47 45 43 41 38 37 37 37 37 38 38 37 35 35 33 31 30 28 28 27 27 27 26 26 25 24
83 82 81 78 74 73 73 71 72 73 72 75 76 74 70 57 41 33 27 25 25 26 28 30 31 32 35 40 54 69 66 41 24 26 31 33 35 35 37 37 35 36 36 36 38 39 41 43 44 46 48 49 50 49 49 49 50 50 49 50 50 49 49 49 49 50 51 51 52 51 48 45 43 40 38 37 37 37 38 39 39 39 39 37 35 33 32 31 30 29 29 28 27 27 26 25 24
85 85 83 79 75 73 72 73 75 75 72 72 70 59 49 40 32 28 26 26 28 29 31 32 33 36 42 53 66 66 47 27 24 29 33 34 35 36 37 38 38 39 39 41 43 45 47 48 49 51 51 51 52 51 50 50 50 49 47 48 49 51 51 51 51 50 49 49 49 49 48 46 43 41 39 38 38 39 39 40 40 40 40 38 36 35 35 34 33 32 31 29 28 27 26 25 24
89 89 86 81 77 74 75 76 74 74 73 69 58 42 34 32 29 27 26 27 29 32 33 33 36 42 49 56 59 48 31 24 28 32 35 36 36 38 38 38 40 42 44 45 46 47 47 48 49 49 49 49 48 48 47 45 45 45 45 45 46 48 50 49 48 46 44 43 44 45 46 47 46 44 42 40 40 40 42 42 42 41 41 40 39 39 39 37 36 34 32 31 29 27 26 25 24
90 88 85 81 79 78 80 77 71 69 66 57 45 33 29 30 29 27 26 27 31 34 35 36 39 41 43 45 43 35 28 30 33 36 38 39 39 39 40 42 44 44 46 46 46 46 45 45 44 43 43 43 43 44 44 43 42 42 42 41 41 42 44 46 46 45 44 42 42 41 42 43 43 43 43 44 44 44 45 44 43 43 42 42 42 41 40 39 38 36 33 31 30 27 26 25 23
87 87 85 81 78 80 79 75 69 61 49 39 33 29 28 30 29 28 27 28 34 37 38 36 34 33 34 37 37 34 34 37 39 43 44 44 43 43 44 45 45 45 45 45 45 45 44 44 43 43 43 43 44 45 45 45 43 42 39 38 39 40 43 47 48 48 46 43 41 41 41 41 41 42 44 45 46 46 46 45 45 45 44 43 43 41 40 39 37 35 33 30 29 27 25 24 23
88 89 85 80 79 80 76 72 63 47 34 30 30 30 31 31 31 30 28 32 40 44 41 33 29 30 33 36 37 39 42 45 49 53 53 53 52 51 50 48 47 47 47 47 48 47 47 47 46 47 48 49 48 46 45 44 43 42 41 42 44 47 48 49 48 46 43 40 38 38 39 41 43 45 47 48 48 48 48 48 47 45 44 43 41 40 39 37 34 32 31 29 27 25 24 22 21
89 87 83 81 81 79 73 65 50 34 28 28 29 31 32 33 34 33 35 42 46 43 37 30 29 34 37 38 40 43 48 53 56 57 57 58 58 57 55 54 53 53 53 54 54 53 51 50 51 51 52 52 51 50 49 47 45 45 45 46 48 47 45 42 39 38 37 36 35 35 36 38 42 44 47 49 51 53 53 51 49 46 44 41 38 37 36 34 32 30 28 27 25 23 22 20 19
88 86 84 83 81 76 65 49 34 28 28 28 29 32 34 38 42 42 47 52 45 33 29 30 34 41 45 45 44 46 49 52 52 51 51 52 54 54 53 54 55 56 56 57 56 54 52 53 55 55 54 53 52 51 49 47 47 48 46 44 41 38 36 34 34 34 34 33 33 35 36 37 40 42 44 47 49 51 52 51 49 46 42 39 36 34 32 31 29 27 25 24 23 21 19 18 16
90 88 86 83 79 68 51 35 29 29 29 29 33 37 41 47 47 47 50 45 34 28 28 31 35 40 42 42 42 43 44 45 44 43 44 45 45 46 46 49 52 54 55 54 53 52 53 55 55 54 52 51 50 48 45 43 43 43 40 37 34 34 34 33 34 33 33 33 34 36 37 38 41 42 44 46 47 47 47 46 44 42 39 36 33 31 29 28 26 25 23 21 20 19 17 16 15
93 91 85 78 68 51 34 28 28 29 30 33 37 42 51 56 51 46 46 40 34 33 32 33 38 39 38 37 39 42 42 42 42 41 41 41 41 42 45 50 54 55 53 52 51 52 53 54 53 52 49 46 45 44 44 41 38 36 34 34 36 36 35 34 33 33 34 36 37 39 40 40 41 41 42 42 43 42 40 40 38 36 34 31 28 26 24 23 22 20 19 18 17 16 15 14 13
95 95 85 68 50 32 26 28 29 32 34 37 44 52 59 56 44 39 42 42 42 43 40 42 47 47 44 42 43 43 43 43 42 42 42 42 43 46 50 54 55 53 51 51 53 55 55 53 51 49 48 47 45 43 41 39 38 39 38 38 38 36 36 36 37 39 40 41 42 42 42 41 39 37 37 36 36 35 34 32 30 28 25 23 20 19 17 16 16 15 14 14 13 13 12 12 11
87 85 70 50 34 26 28 31 33 36 38 44 56 60 55 45 38 40 43 43 44 45 44 49 53 51 48 48 48 47 46 45 45 45 45 46 48 51 53 55 55 54 56 57 59 58 55 52 50 49 49 48 45 41 38 38 40 42 41 38 36 36 38 40 42 44 44 44 43 42 40 38 36 33 31 29 27 26 25 23 20 18 16 15 13 12 12 12 11 11 11 11 11 10 10 10 9
74 62 45 33 29 30 33 34 35 39 44 55 60 53 44 37 37 40 43 44 47 49 53 59 60 57 54 54 53 51 49 48 47 47 48 51 54 55 56 57 59 61 62 61 59 56 54 52 51 48 45 41 39 39 39 39 38 37 37 37 38 40 43 45 46 46 44 41 38 36 35 33 31 28 25 22 18 16 15 13 12 11 10 10 9 9 9 9 8 9 9 8 9 8 8 8 8
55 40 30 30 33 37 38 37 41 49 54 57 52 44 42 42 42 43 43 47 54 58 63 66 63 58 56 55 53 53 52 50 49 51 55 59 60 60 60 61 64 65 62 60 59 58 55 50 45 40 37 37 37 38 38 36 36 36 38 41 43 45 47 47 46 45 44 42 39 36 31 27 23 20 17 14 11 10 9 9 8 8 8 8 8 7 7 7 7 7 7 7 7 7 7 7 6
36 30 32 36 39 40 39 42 54 60 55 49 46 45 46 47 49 49 46 47 52 58 62 63 61 57 53 53 53 53 53 52 53 57 62 65 66 65 64 64 64 62 60 59 57 51 44 39 36 36 37 38 37 37 37 38 40 42 44 46 47 48 48 46 44 42 40 38 35 31 24 19 14 11 10 9 8 8 8 8 8 7 7 7 7 7 6 6 6 6 6 6 6 6 6 6 5
32 36 40 40 39 40 45 54 61 56 44 42 47 49 50 53 53 49 48 50 53 57 62 65 63 57 52 53 55 54 55 57 61 66 69 70 69 68 67 66 64 58 53 49 44 40 39 38 39 40 40 40 41 41 43 45 47 50 51 51 50 48 46 44 40 36 30 25 21 17 13 11 9 9 9 9 8 9 8 8 7 7 7 7 6 6 6 6 5 5 5 5 5 5 5 5 5
40 43 42 41 43 49 56 58 51 41 38 41 48 51 55 62 59 50 48 51 52 54 59 63 60 53 53 58 60 61 64 67 70 74 75 74 74 72 70 65 58 49 44 42 43 43 44 45 45 44 44 45 47 49 51 52 53 54 53 51 49 46 42 36 30 23 17 13 10 9 9 9 9 10 10 10 9 9 8 7 7 7 6 6 6 6 6 5 5 5 5 5 5 5 5 5 5
43 44 45 51 59 62 59 50 38 34 34 37 42 45 52 59 54 47 46 46 47 52 60 63 58 56 60 63 64 66 68 70 72 74 73 71 69 64 58 51 46 44 44 46 47 47 47 47 47 47 48 50 53 54 54 54 53 51 49 46 41 36 30 22 16 12 10 9 9 9 10 10 11 11 10 9 9 8 8 7 6 6 6 6 5 5 5 5 5 5 4 4 4 4 4 4 4
43 49 58 66 68 60 49 43 41 40 41 46 45 45 59 64 51 48 55 55 55 65 71 70 67 68 70 68 67 68 68 69 69 67 63 59 55 49 46 45 46 48 50 50 49 48 48 48 49 50 51 53 54 54 53 50 48 44 39 33 26 20 15 11 9 9 9 10 10 10 10 10 9 9 8 7 7 7 6 6 6 6 5 5 5 4 4 4 4 4 4 4 4 4 4 4 4
55 60 63 60 52 44 40 40 43 43 46 54 50 50 70 77 61 60 67 65 66 73 75 73 73 73 72 69 69 69 68 66 62 56 52 50 49 47 47 49 51 52 53 52 50 49 49 50 51 52 53 52 51 49 46 42 35 29 23 17 13 11 9 9 9 10 10 10 10 9 8 7 7 6 6 6 6 6 5 5 5 5 5 4 4 4 4 4 3 4 3 3 4 3 3 4 4
Wind_Speed
29 30 31 32 33 34 35 36 37 38 38 39 40 41 42 43 44 45 45 46 47 48 49 50 52 53 55 57 58 60 61 63 64 65 66 68 69 70 71 72 73 74 75 77 78 79 79 80 80 81 82 82 83 83 84 84 85 85 85 85 85 85 85 86 86 86 86 86 86 86 85 85 84 84 84 84 83 83 83 82 82 82 82 81 81 80 80 79 79 79 78 78 78 77 76 75 75
29 30 31 32 33 34 35 36 37 38 39 40 41 42 43 44 45 46 46 48 49 51 52 54 55 57 58 60 62 63 64 65 66 67 69 70 71 73 74 75 76 77 77 78 79 79 80 81 81 82 83 84 85 85 85 85 85 85 85 85 85 85 85 86 86 86 86 86 86 86 85 85 84 84 84 84 84 84 83 82 82 82 82 82 82 82 81 81 80 80 80 80 80 79 78 77 77
31 32 33 33 34 34 35 36 37 38 39 41 42 43 44 45 46 47 48 50 52 54 56 57 59 60 62 63 64 65 67 68 69 71 72 73 74 75 75 76 77 77 78 79 80 81 82 83 84 84 84 85 85 85 85 84 84 84 84 84 84 84 84 84 84 84 85 85 85 85 85 84 84 83 83 83 84 83 83 83 82 82 82 82 82 83 83 83 82 81 81 81 81 81 80 80 79
32 33 33 34 34 35 37 38 39 40 41 42 43 44 46 47 48 50 51 53 55 57 59 61 62 64 65 66 67 68 70 71 72 72 73 74 75 75 76 77 78 79 80 81 82 83 83 84 84 84 83 83 83 83 83 82 82 82 82 82 82 82 82 82 82 83 83 83 83 84 84 83 83 82 82 82 83 83 82 82 82 82 82 82 82 82 83 83 83 83 82 82 83 82 82 82 81
33 33 34 35 36 37 38 40 41 42 43 45 46 47 49 50 51 53 55 57 60 61 62 64 65 66 67 68 69 70 70 71 72 73 73 75 76 77 78 79 80 81 82 82 82 82 82 82 82 82 81 81 81 81 81 81 81 80 80 80 80 80 80 80 80 80 81 81 82 82 82 82 82 81 81 82 82 82 82 82 81 82 82 82 82 82 82 83 83 83 83 83 83 83 83 83 83
35 36 37 38 39 40 41 42 43 45 46 47 49 50 52 53 55 57 59 61 63 64 65 66 67 67 67 68 68 69 70 71 72 74 75 76 78 79 80 80 81 81 81 80 80 80 80 80 80 80 79 79 79 79 79 79 79 79 79 79 78 78 79 79 79 79 79 79 79 80 81 81 81 81 81 81 81 81 81 81 81 81 82 81 82 82 82 82 83 83 83 84 84 84 84 84 84
37 38 39 40 41 42 43 45 46 47 49 50 52 54 55 57 59 61 62 63 64 64 65 65 65 65 66 68 68 70 72 73 74 76 77 78 79 80 80 80 79 79 78 78 78 78 78 78 78 78 77 77 77 77 77 77 77 77 77 77 77 77 77 77 77 78 78 78 78 78 79 79 79 80 80 80 81 81 81 81 81 81 81 82 82 82 82 82 82 83 83 83 84 84 84 84 85
39 39 41 42 43 45 46 47 49 50 52 54 55 57 59 60 61 62 62 62 62 62 62 63 65 66 68 70 71 73 75 76 77 78 79 79 79 79 78 78 77 77 76 76 76 76 76 76 75 75 75 75 75 75 75 75 76 76 76 76 76 76 76 76 76 77 77 77 77 77 77 78 78 78 79 79 80 80 80 80 81 81 81 81 82 82 82 82 82 83 83 83 83 83 84 84 85
42 43 44 45 46 47 49 51 52 54 56 57 59 59 59 59 59 59 59 60 61 62 64 66 68 69 72 74 75 76 77 78 79 79 79 78 77 76 76 75 75 75 74 74 74 74 74 74 74 73 73 73 73 73 74 74 74 75 75 75 76 76 76 76 76 76 77 77 77 77 77 77 77 77 78 78 79 80 80 79 80 80 81 81 82 82 82 82 83 83 83 83 83 83 84 84 85
46 47 48 49 49 51 53 55 56 57 58 58 58 57 57 57 57 58 60 62 63 65 67 70 71 73 75 77 78 78 78 78 77 76 75 75 74 74 74 73 73 73 73 73 73 73 73 73 72 72 72 72 72 73 73 73 74 74 75 75 76 77 77 77 77 77 77 78 78 78 78 78 78 77 77 78 78 79 79 79 79 79 80 80 81 81 82 82 83 83 84 84 83 84 84 84 85
46 47 49 50 52 54 56 57 57 57 56 56 55 56 57 58 60 62 63 65 67 69 71 73 74 76 77 77 78 77 76 75 74 73 72 73 73 73 73 72 73 72 72 72 72 72 72 72 72 72 72 72 72 73 73 74 74 75 75 76 77 77 78 78 79 79 79 79 79 79 79 79 79 78 78 78 79 79 79 78 78 78 78 79 80 80 81 81 82 83 84 84 84 85 85 85 85
48 50 51 53 54 55 55 55 54 54 55 55 57 58 60 61 63 65 67 68 70 72 73 75 75 76 76 76 75 74 73 72 72 71 71 71 72 72 72 72 72 71 71 71 71 70 71 71 71 71 71 72 73 74 74 75 76 77 77 77 78 78 79 80 80 80 80 80 80 80 81 80 80 80 80 80 80 80 79 78 77 77 77 78 79 79 80 81 81 83 83 84 85 85 86 86 86
53 54 54 54 53 53 53 53 54 55 57 58 60 62 63 65 66 68 69 71 72 73 74 75 74 74 73 72 72 71 70 71 71 70 70 70 71 71 71 71 71 70 70 70 70 70 70 70 71 72 72 73 74 75 76 76 77 78 79 79 80 80 80 81 81 81 82 82 81 82 82 82 81 81 81 81 81 80 79 78 77 77 77 77 78 79 79 80 81 81 82 83 84 86 86 87 87
53 53 53 53 53 54 55 56 57 58 60 62 63 65 66 68 69 70 70 71 72 72 72 73 72 72 71 69 68 70 69 69 69 68 69 69 70 70 69 69 70 69 69 69 69 70 70 70 71 73 74 75 76 77 78 78 78 79 80 81 81 82 82 82 82 82 82 82 82 82 83 83 82 82 82 82 81 80 80 79 78 77 78 78 78 78 79 80 80 81 81 82 83 85 86 87 88
52 53 53 54 55 56 57 58 60 62 64 65 66 67 68 69 69 70 70 71 71 71 70 70 70 69 68 67 66 68 69 68 67 68 68 68 68 68 68 68 69 69 70 70 70 71 71 72 72 73 75 75 76 77 78 79 80 80 80 81 81 82 82 82 83 83 83 83 83 83 83 83 82 82 82 82 81 80 80 79 79 79 79 79 79 79 79 79 80 80 81 82 83 84 85 86 87
52 53 54 56 57 59 60 62 63 64 65 66 66 67 68 69 69 69 70 69 69 69 68 68 69 68 66 65 65 66 67 67 66 67 67 68 68 68 69 69 70 70 71 71 72 73 73 73 73 74 75 75 76 77 77 78 79 80 81 81 81 81 82 82 82 83 83 82 82 82 81 81 81 81 80 80 80 79 79 79 80 80 80 80 80 79 79 80 80 80 80 81 82 82 83 83 85
54 55 57 59 60 61 63 63 64 64 65 66 66 67 67 68 69 68 68 67 67 67 66 66 68 67 64 65 65 65 65 66 66 67 68 68 69 69 70 70 71 71 72 72 72 73 73 73 73 73 74 75 75 76 77 77 78 79 80 80 80 81 81 80 80 81 81 81 80 79 79 78 78 78 77 77 77 77 77 78 79 79 80 80 80 80 80 80 80 80 80 81 81 81 81 81 82
58 59 60 61 62 62 62 63 63 63 64 65 66 66 66 67 67 67 66 65 65 65 65 65 66 65 63 64 66 65 65 66 67 68 69 69 70 69 70 71 71 71 72 72 72 73 73 73 73 73 74 74 75 75 76 77 77 77 78 78 78 78 78 78 78 78 78 78 77 76 76 75 75 74 74 74 74 74 75 76 77 78 78 79 79 79 80 80 81 80 81 81 81 81 81 81 81
60 60 60 60 60 61 61 62 62 63 64 65 65 65 65 65 65 65 64 63 63 63 64 64 64 65 64 64 66 66 66 67 68 68 69 69 70 69 70 71 71 71 71 71 71 73 73 73 73 73 74 74 74 74 75 75 76 75 75 75 75 75 75 75 75 75 74 74 73 72 71 71 70 70 70 70 70 71 72 73 75 75 76 77 78 78 78 79 80 80 81 81 82 82 81 81 81
58 58 58 59 59 60 61 62 62 62 63 63 64 63 63 63 63 63 62 62 62 62 64 64 64 65 65 64 66 68 68 68 69 68 69 69 69 69 70 70 71 71 72 71 71 72 73 74 74 74 73 73 73 72 72 73 74 73 73 73 72 72 72 71 71 69 68 67 66 65 63 63 63 63 63 64 65 67 68 69 71 72 73 74 74 75 76 76 77 78 79 80 81 81 81 81 81
56 57 57 59 60 60 61 62 62 62 62 62 62 62 62 62 61 61 61 61 62 61 63 64 64 65 65 65 66 69 69 68 69 69 69 70 70 70 70 70 70 71 72 72 73 73 73 74 74 74 73 72 72 71 71 71 71 71 71 69 69 68 66 64 62 60 58 57 56 54 53 53 53 54 55 56 58 59 61 63 64 66 67 68 70 71 72 73 74 75 76 78 79 80 81 81 81
56 57 58 59 60 60 61 61 62 62 61 61 61 61 61 61 61 61 61 61 62 62 63 64 64 65 66 66 66 69 70 69 69 70 70 71 70 71 71 71 71 71 72 72 73 74 73 73 72 72 72 71 71 71 70 69 69 69 67 66 64 61 57 53 51 49 48 47 47 47 46 46 47 47 48 49 50 52 53 55 57 59 61 62 64 66 67 68 70 71 73 74 76 78 78 79 80
57 58 59 59 59 60 60 60 61 61 60 60 60 60 60 61 61 61 61 62 63 63 64 64 65 65 66 67 67 68 69 70 70 70 71 71 71 71 71 71 72 72 73 73 73 72 72 72 71 71 71 70 70 69 69 67 66 65 64 60 56 51 48 45 44 44 43 43 44 45 45 45 45 46 47 48 48 49 51 52 54 56 57 59 61 63 64 66 68 69 71 72 74 75 76 77 78
58 58 58 58 58 59 59 59 60 59 59 60 60 61 61 61 61 61 61 62 63 64 65 65 66 66 67 69 69 68 69 70 70 70 71 71 72 72 72 72 73 73 74 73 72 71 71 71 71 70 69 69 68 67 67 65 63 61 58 53 48 46 44 43 43 43 43 44 45 46 46 46 47 47 48 49 50 51 52 54 55 57 58 60 61 63 65 66 68 70 71 73 74 75 76 77 78
57 57 57 58 58 58 59 59 59 59 59 60 61 61 61 62 61 61 61 62 64 66 66 67 67 68 69 70 70 69 69 69 69 70 71 72 73 73 73 73 74 74 73 72 71 71 71 71 70 69 67 66 65 64 63 62 59 55 50 46 45 45 44 44 44 45 45 46 46 47 48 48 48 49 50 51 52 53 54 56 57 58 60 61 62 64 66 67 69 71 73 74 75 76 77 78 78
57 57 57 57 58 58 58 58 58 59 59 60 61 61 61 62 62 62 62 63 65 67 68 68 69 69 70 71 70 70 69 69 70 71 71 72 73 74 75 74 73 73 73 72 71 71 70 69 68 67 65 63 61 60 58 55 51 46 43 43 44 45 45 45 46 46 47 47 47 48 48 49 49 50 51 52 53 55 56 57 58 60 61 62 63 65 66 68 70 72 73 74 75 77 77 78 79
56 56 56 56 57 57 56 57 58 59 60 60 61 62 62 62 64 63 63 64 67 69 69 70 70 70 71 71 70 70 70 70 70 71 72 73 74 75 74 73 73 73 72 71 70 69 68 66 65 62 60 57 55 53 49 45 42 41 42 43 45 46 46 46 47 47 47 48 48 49 49 50 51 52 52 53 55 56 57 58 60 61 62 63 64 65 67 68 70 72 73 74 76 77 77 78 78
56 56 56 55 55 56 56 57 59 59 60 60 60 63 63 63 65 66 65 65 68 70 71 70 70 70 71 71 71 70 70 71 71 72 73 74 74 74 73 73 73 72 71 69 68 66 63 60 58 54 51 48 45 42 40 38 39 40 43 44 46 47 48 47 47 48 48 49 50 50 51 52 53 54 54 55 56 58 59 60 61 62 63 64 65 65 67 69 70 72 74 75 76 77 77 78 78
55 55 55 54 55 56 56 57 59 59 59 60 60 63 65 65 66 68 67 67 69 71 71 71 71 71 72 72 72 71 71 72 72 72 73 74 73 73 73 72 71 70 68 65 62 58 53 50 47 44 41 39 37 36 37 38 40 43 44 45 47 47 48 48 48 49 50 51 51 52 53 54 56 57 57 58 59 60 61 62 63 63 64 65 66 67 68 70 71 73 74 75 76 77 77 78 78
54 54 54 54 54 55 57 58 59 60 60 61 61 63 67 67 66 69 69 69 71 72 71 71 71 72 72 72 72 72 72 72 72 72 72 72 72 72 71 69 67 65 62 56 51 47 44 42 40 38 36 36 38 39 40 41 43 45 46 47 47 47 48 49 50 51 52 53 54 55 56 58 59 60 61 61 62 62 63 64 65 65 66 67 68 69 69 71 72 73 75 76 76 77 77 78 78
53 53 53 55 55 55 58 60 60 60 60 62 63 65 69 70 68 68 69 70 71 72 71 71 71 72 72 73 72 72 71 71 71 71 70 71 71 70 68 64 61 56 50 46 43 42 41 40 40 39 38 39 40 42 44 45 45 46 47 48 48 49 50 51 52 53 54 56 57 58 59 61 62 63 64 65 65 65 66 67 67 67 68 69 70 71 71 72 73 74 75 76 76 77 78 78 78
54 55 54 55 56 57 58 60 61 60 61 64 65 67 71 73 71 69 69 71 72 73 72 70 71 72 72 72 71 71 70 69 69 69 69 70 69 66 62 57 51 45 43 42 42 42 42 41 42 42 43 43 43 45 46 47 47 47 48 49 50 51 53 54 55 56 58 59 60 61 62 63 65 66 67 68 68 68 69 69 69 69 70 71 72 73 73 74 74 75 76 76 76 76 77 78 78
54 56 56 57 57 58 58 59 61 62 62 65 67 69 72 74 73 71 71 71 72 74 73 71 72 72 71 71 70 69 68 68 67 68 69 67 63 58 53 48 43 42 43 43 43 43 44 43 44 44 45 46 47 47 47 48 49 49 49 50 52 54 56 57 58 60 61 63 64 65 65 67 68 69 70 71 72 72 72 72 72 72 72 73 74 75 75 75 75 75 76 76 76 76 77 78 78
54 55 56 57 58 60 59 58 61 63 64 67 69 70 72 75 75 74 73 72 70 72 73 73 72 72 71 70 69 68 67 66 65 67 66 60 54 50 46 44 43 44 44 45 45 45 45 45 46 46 47 48 48 49 49 50 51 52 52 53 55 57 59 61 62 64 65 66 68 69 69 70 71 72 74 75 75 75 75 75 75 75 75 75 76 76 77 77 76 76 76 76 77 77 77 78 79
54 55 56 57 58 59 60 59 62 64 65 69 70 70 71 74 76 76 76 74 71 71 71 72 72 71 69 68 67 66 65 63 64 65 59 51 48 45 44 45 45 46 46 46 46 47 46 47 47 48 48 49 50 51 51 52 53 55 56 57 59 60 62 64 66 67 69 70 71 72 73 74 75 76 77 78 78 79 79 78 78 78 77 77 78 78 78 78 78 78 77 78 78 78 78 79 79
54 55 55 56 57 59 61 62 64 67 67 70 71 70 72 74 75 76 76 75 74 72 71 71 70 69 68 66 65 65 62 62 65 60 50 46 45 44 45 46 47 48 48 48 48 47 47 48 48 49 50 50 52 53 54 55 56 58 59 61 62 64 65 67 69 71 72 73 74 75 76 77 79 79 80 80 81 82 82 81 81 81 80 80 80 80 80 80 80 80 80 79 79 79 80 80 80
53 55 56 57 58 59 62 64 66 69 69 70 71 71 73 74 74 75 75 75 74 74 73 71 70 68 67 65 64 62 59 63 63 52 44 44 44 45 46 47 49 49 49 49 49 48 49 49 50 51 52 53 54 55 57 58 59 61 62 64 65 67 68 70 71 74 75 77 78 78 79 81 82 83 83 83 84 84 84 84 84 83 83 83 83 83 83 83 83 83 82 82 82 81 81 82 82
54 56 57 58 59 61 64 65 67 69 69 70 71 71 73 74 73 75 75 74 73 73 72 71 70 69 67 65 62 58 59 64 57 45 42 44 45 46 48 49 50 50 49 50 49 50 51 51 53 54 55 56 57 58 59 61 63 64 65 67 69 70 71 72 74 76 77 79 80 82 83 84 85 85 86 86 86 86 86 86 86 86 87 86 86 87 87 87 86 86 85 85 84 83 83 84 84
56 58 59 60 61 62 64 65 67 68 68 69 71 70 72 74 74 74 74 73 72 72 72 71 70 69 66 63 58 55 60 61 49 42 43 44 45 47 49 51 52 51 52 51 51 53 53 54 56 57 58 59 61 62 63 64 66 67 68 70 72 73 74 75 77 78 79 81 83 85 86 87 88 88 89 89 89 89 89 89 89 90 91 91 90 90 90 90 90 90 89 88 87 86 86 86 86
58 60 62 63 64 65 65 65 66 68 69 70 70 70 70 74 74 72 72 72 72 71 71 70 69 67 63 58 53 54 58 53 44 43 45 45 46 48 50 52 52 53 54 54 54 55 56 58 59 60 62 63 64 65 67 68 69 71 72 73 75 77 78 80 81 82 82 84 85 87 89 90 91 92 92 92 92 92 92 92 93 94 94 95 94 94 94 94 94 93 93 91 90 89 89 88 88
60 61 64 66 67 68 67 66 67 69 70 71 71 69 69 73 73 70 69 71 71 71 70 69 67 63 57 51 49 52 52 49 45 45 47 48 49 50 51 52 53 54 55 57 58 58 60 61 63 64 65 67 68 70 71 72 73 75 76 78 80 81 83 85 86 86 87 88 88 89 90 92 93 94 95 95 95 96 96 97 97 98 98 98 98 98 98 98 98 98 96 95 94 93 91 91 91
62 64 66 67 69 69 69 69 69 69 70 71 73 70 68 71 73 69 68 68 69 70 69 66 61 55 49 46 46 48 48 48 49 49 50 51 52 52 54 55 56 57 58 60 61 63 65 66 67 69 70 71 73 75 76 77 78 80 81 83 84 85 87 89 90 91 92 92 92 92 93 93 94 95 97 98 99 100 100 101 102 102 102 102 102 102 102 102 102 102 100 99 97 96 94 93 93
65 67 68 69 70 70 70 71 71 70 69 70 72 72 69 70 73 71 68 67 67 68 66 60 54 47 43 43 45 47 48 50 51 52 54 54 55 56 57 58 60 61 62 64 66 67 69 71 73 74 76 77 79 80 81 83 84 85 86 88 89 90 91 93 94 95 95 95 95 94 95 96 97 98 99 101 102 103 104 105 106 106 106 106 106 105 105 105 105 104 103 102 100 99 97 96 95
67 69 70 71 71 72 72 72 72 71 69 69 70 72 71 71 72 70 67 67 67 67 62 54 47 43 42 44 45 47 49 51 52 54 56 58 59 60 62 63 65 66 67 69 71 73 74 76 78 79 81 83 85 86 86 87 89 90 91 93 94 96 96 97 97 98 98 97 97 97 97 98 100 102 103 105 106 108 109 110 110 110 109 109 109 108 108 108 107 106 105 104 103 101 99 98 97
70 71 72 72 72 73 73 72 72 70 68 67 67 69 71 72 73 70 66 67 67 63 56 49 45 44 45 46 47 48 50 51 53 55 58 60 63 64 66 68 70 71 73 74 76 77 79 81 83 84 86 87 89 90 91 92 94 95 96 97 98 100 100 100 100 100 100 100 100 101 101 101 102 104 106 108 110 112 113 114 114 114 114 113 112 111 110 110 109 108 107 105 104 103 101 100 98
71 72 73 73 74 74 74 72 71 69 67 66 66 69 70 70 71 69 66 65 62 55 49 46 46 47 49 50 50 50 51 53 55 57 60 62 64 67 69 71 74 75 77 78 80 81 82 84 86 88 89 91 93 94 95 96 97 99 101 102 103 103 103 103 103 103 103 104 105 105 106 106 106 108 109 110 112 114 116 117 118 118 118 117 116 114 112 111 110 109 108 106 105 104 103 101 100
72 73 74 74 74 74 73 71 70 68 66 65 65 68 68 67 67 65 63 61 55 49 47 46 47 50 51 53 53 53 54 56 59 61 63 65 67 69 71 73 76 78 80 82 83 84 85 87 89 91 93 94 96 97 99 101 102 103 104 106 106 106 106 106 106 108 109 109 109 110 111 111 112 112 113 114 115 117 117 118 120 120 120 119 118 116 114 112 111 110 109 108 106 105 104 103 101
73 75 75 75 74 73 70 68 67 66 65 64 64 65 65 65 64 59 57 55 53 52 51 51 52 53 54 54 55 57 59 61 63 65 67 69 71 72 74 77 80 82 83 84 86 88 89 91 93 95 97 98 100 101 103 105 106 107 107 107 108 109 110 111 112 113 114 114 115 116 116 116 116 116 116 117 118 119 119 119 120 120 119 118 117 116 114 112 111 110 109 108 107 106 105 104 103
74 77 78 76 74 71 67 66 66 65 64 62 62 63 63 62 58 53 51 52 53 55 56 57 58 59 59 59 60 62 64 65 67 69 71 72 74 76 78 80 83 85 87 88 90 92 94 95 97 99 101 103 105 106 107 108 108 109 110 110 111 112 114 115 117 118 119 120 120 121 121 120 120 119 118 118 118 119 119 119 119 118 117 117 116 115 114 112 110 109 108 108 107 106 106 105 104
75 76 77 75 73 69 65 64 64 63 62 60 60 61 59 56 51 50 51 52 54 57 59 60 62 63 63 64 66 67 69 70 72 74 75 77 79 80 81 84 86 88 90 92 94 96 98 100 101 103 105 107 108 109 109 109 109 111 113 114 115 116 118 119 121 123 123 124 124 124 124 123 122 121 120 118 117 117 117 117 117 116 115 114 114 113 112 111 110 108 107 107 106 106 106 105 104
75 75 74 72 71 68 65 63 62 60 59 58 59 57 53 50 48 50 53 55 58 60 61 63 65 66 68 69 71 73 74 75 77 78 80 82 84 85 86 88 90 92 94 96 98 100 102 104 106 107 108 109 110 110 111 112 112 114 116 118 120 121 123 124 125 126 127 127 127 126 125 124 123 122 120 119 116 115 114 113 114 114 113 112 112 112 111 110 109 107 106 106 105 105 105 105 104
74 73 71 69 68 67 66 63 61 59 56 54 53 51 50 51 50 52 56 58 60 62 64 66 68 69 71 73 74 77 78 80 81 83 85 87 89 90 91 93 94 96 98 100 102 105 106 108 109 109 110 110 111 112 114 115 117 118 120 122 124 126 127 128 129 129 130 130 130 129 127 125 122 120 119 117 115 114 112 111 111 111 111 111 110 110 110 109 107 106 104 104 103 103 103 103 102
72 70 68 67 66 66 64 60 59 59 53 48 47 49 51 52 52 54 57 58 60 63 67 69 71 73 74 76 77 80 82 84 85 87 89 91 93 94 95 96 98 100 101 103 106 108 109 110 110 110 111 112 114 116 117 119 121 123 125 127 128 130 130 131 132 131 130 129 128 127 126 123 120 117 115 114 113 112 111 110 109 108 108 108 108 108 107 106 105 104 102 101 101 100 100 100 99
71 68 67 67 65 64 62 59 58 55 49 44 45 50 54 56 57 56 57 59 61 65 69 72 75 77 77 78 81 83 85 87 88 90 92 94 96 98 100 101 103 104 105 107 108 110 110 111 112 113 114 116 118 120 122 124 126 128 130 132 133 134 134 134 133 131 128 125 123 121 120 119 117 115 113 112 111 111 110 109 107 106 106 105 105 105 104 104 102 101 99 98 98 97 96 95 96
69 68 67 66 64 62 61 59 55 50 45 44 47 52 56 59 61 60 59 60 62 66 70 74 78 79 80 81 84 86 88 90 92 94 96 98 100 102 104 106 107 108 109 109 110 111 112 114 116 117 119 121 123 125 127 129 131 133 134 136 136 136 135 133 130 127 124 121 118 116 115 115 114 113 112 111 110 109 108 107 105 104 103 102 102 101 101 100 99 98 96 95 94 94 92 91 92
67 66 65 64 64 62 60 56 52 49 47 48 50 53 57 62 64 65 64 64 65 68 72 77 80 82 83 85 87 89 91 93 95 97 99 101 103 106 107 108 109 110 110 111 112 114 116 118 120 122 124 127 129 131 133 134 136 137 137 137 136 134 132 129 126 123 120 118 116 114 113 111 111 110 109 108 107 106 105 104 102 101 100 100 99 98 97 96 96 95 94 92 91 90 89 88 88
63 63 62 62 62 59 54 51 51 52 52 54 55 55 60 67 68 67 70 70 70 72 77 82 84 86 88 90 91 92 94 96 98 100 101 103 105 107 108 109 110 111 112 115 116 118 120 123 125 128 130 132 134 135 137 138 138 137 136 133 131 128 125 123 121 119 118 116 113 110 108 106 105 104 103 102 101 102 101 100 98 98 97 97 97 96 95 93 92 91 91 90 88 87 86 85 85
61 61 61 60 57 53 50 48 51 54 55 58 59 58 62 70 72 71 74 75 75 77 81 84 87 90 92 93 95 96 98 99 101 103 104 105 106 107 108 110 112 114 116 118 121 123 126 128 131 133 135 136 137 138 138 137 135 133 130 127 124 123 121 119 118 116 113 111 108 105 102 99 98 98 97 96 95 96 98 97 95 94 94 95 95 95 94 92 90 88 87 86 85 84 82 81 81
Wind_Direction
247 248 250 251 252 254 255 257 258 260 262 263 264 265 266 267 268 269 270 271 271 272 272 272 273 273 274 274 275 275 275 275 275 276 276 277 278 278 279 279 280 280 281 281 281 281 281 282 282 282 282 282 282 282 281 281 281 281 280 280 279 279 278 277 277 276 275 275 274 273 272 272 271 270 270 269 268 267 267 266 266 265 264 264 263 261 260 259 258 258 257 257 256 256 255 254 254
251 252 254 255 256 257 257 258 260 261 262 263 264 265 267 268 269 270 271 272 272 273 273 273 273 274 274 275 275 276 276 277 277 278 278 279 280 280 280 281 281 281 281 282 282 282 282 282 282 282 282 282 282 282 281 281 281 280 280 279 279 278 277 277 276 275 275 274 274 273 272 271 270 269 269 268 267 266 266 265 264 264 263 263 262 261 260 258 257 256 256 255 255 254 254 253 252
255 256 257 258 258 258 258 259 260 262 263 264 266 267 269 270 271 271 272 272 273 274 274 274 275 275 276 277 277 278 279 279 280 280 280 280 281 281 281 282 282 283 283 283 283 284 284 283 283 283 283 282 282 281 281 280 279 279 278 278 277 277 276 275 275 274 274 273 273 273 272 271 270 269 268 268 267 266 265 265 264 263 262 262 261 261 260 259 257 256 255 254 254 253 252 252 251
257 257 258 258 258 259 260 261 263 264 265 267 268 269 270 271 271 272 272 273 275 276 277 277 277 278 279 279 279 280 280 281 281 281 282 282 283 283 283 284 284 284 284 284 284 284 284 283 283 282 281 281 280 280 279 279 278 277 277 276 276 275 275 274 274 273 273 273 272 272 271 271 270 269 269 268 267 267 266 265 264 262 262 261 260 259 259 258 258 256 255 253 252 252 251 251 250
258 259 259 260 261 262 264 265 266 267 268 269 269 270 270 271 272 273 274 276 277 278 279 279 280 280 280 281 281 282 282 283 283 284 284 284 285 285 285 285 285 285 284 284 283 283 282 282 281 280 280 279 279 278 277 277 276 276 275 275 274 274 273 273 272 272 272 271 271 271 271 271 270 269 268 267 267 266 266 265 264 263 262 261 260 259 258 257 257 256 255 254 252 251 250 249 249
261 261 262 263 264 265 266 267 267 267 268 269 269 270 271 272 273 275 276 278 279 280 280 280 281 282 282 283 283 284 284 284 285 285 285 285 285 285 285 285 284 284 283 282 282 281 281 280 280 279 279 278 278 277 276 276 275 275 274 273 273 272 271 271 270 270 269 268 268 269 269 269 269 268 268 267 267 266 265 264 264 263 262 261 260 259 258 257 256 255 255 254 253 251 250 249 248
262 262 263 264 264 265 266 266 267 268 269 269 271 272 273 274 276 277 278 279 280 280 281 282 283 283 284 284 284 285 285 285 285 285 285 285 285 284 284 283 282 282 281 281 280 280 279 279 279 279 278 278 278 277 277 276 276 275 274 273 273 272 271 270 269 269 268 267 266 266 266 266 266 266 266 265 265 265 265 264 264 263 262 262 261 260 259 258 256 255 254 253 253 252 250 249 248
262 263 263 263 264 265 266 267 269 270 271 272 274 275 276 277 278 279 279 280 281 282 283 284 284 285 285 285 285 285 285 285 285 284 284 284 283 283 282 282 281 281 281 280 280 280 279 279 279 278 278 278 278 278 278 277 277 277 276 276 275 274 273 272 271 271 270 269 267 266 265 265 264 264 264 263 263 263 263 263 263 262 262 262 261 260 259 258 257 256 255 253 252 251 250 249 248
262 263 263 264 265 267 268 270 272 274 275 276 277 278 278 278 279 280 282 283 284 285 285 285 286 286 286 285 285 285 285 284 284 284 283 283 283 282 282 282 281 281 281 280 280 280 280 280 279 279 279 279 279 279 279 279 279 279 279 278 278 277 276 275 275 274 273 272 271 270 269 267 266 265 264 263 263 262 261 261 260 260 260 260 260 260 260 259 258 257 256 254 253 251 250 249 248
262 264 264 266 268 270 273 275 276 277 277 277 278 278 279 280 282 283 284 285 285 286 286 286 286 286 285 285 285 285 285 284 284 283 283 283 283 282 282 282 282 282 282 281 282 281 282 282 282 282 282 282 282 282 281 281 281 281 281 280 280 279 278 278 277 276 275 275 274 273 272 271 269 268 266 265 264 263 262 261 260 260 259 259 258 258 258 258 258 258 257 256 255 253 251 249 247
264 266 267 269 272 274 276 276 276 276 276 277 278 280 282 283 284 285 286 286 286 286 286 286 286 285 285 285 285 285 285 284 284 284 284 284 283 283 283 283 283 283 283 283 284 284 284 284 284 285 285 285 285 284 284 283 282 282 281 281 280 280 279 278 278 277 276 275 274 274 273 272 271 270 269 268 266 265 264 263 262 261 260 259 258 258 257 256 256 256 256 256 255 254 253 251 248
270 271 272 274 275 275 275 275 275 276 278 279 281 283 284 285 285 286 286 286 286 286 286 286 285 285 285 285 285 285 285 284 284 285 285 284 284 285 285 285 285 285 285 285 286 286 286 287 287 287 286 286 286 285 284 284 283 282 281 280 280 279 278 278 277 277 276 275 274 274 273 272 271 271 270 269 268 267 266 265 264 263 261 260 259 258 257 256 255 254 254 254 254 254 253 252 250
273 274 274 275 275 274 275 276 278 280 282 283 284 285 285 286 286 286 286 286 286 286 286 286 285 285 285 286 286 286 285 285 286 286 286 285 285 285 286 286 286 286 286 286 287 287 287 287 287 287 286 286 285 285 284 283 283 282 282 281 280 279 279 278 277 277 276 276 275 274 273 273 272 271 270 270 269 269 268 267 266 265 264 262 260 259 258 257 256 255 254 253 253 252 252 251 251
273 273 274 274 275 277 279 280 282 283 284 285 285 286 286 286 286 286 286 286 286 286 286 286 286 286 286 287 287 287 286 286 287 286 286 285 286 286 286 286 286 287 287 287 287 287 287 286 286 286 286 286 285 285 284 283 282 282 281 281 281 280 280 279 278 278 277 276 276 275 274 274 273 272 271 271 270 270 269 269 268 266 265 263 262 260 259 258 257 256 254 253 252 252 251 250 250
273 274 275 277 278 280 281 282 283 284 285 285 285 286 286 286 286 287 287 287 287 287 287 287 287 287 288 288 287 286 287 287 286 285 285 285 285 286 286 286 286 287 287 287 287 287 286 286 286 286 286 286 285 285 284 284 283 282 281 281 281 280 280 280 279 279 278 277 276 276 275 274 274 273 272 272 271 270 270 269 268 267 265 264 263 262 261 260 258 257 256 254 253 252 251 250 249
275 276 278 279 280 281 282 283 284 285 285 285 285 286 286 287 287 288 288 288 288 288 289 288 287 288 288 288 287 286 287 286 286 285 285 286 286 286 286 286 287 287 287 287 287 287 287 287 286 286 286 285 285 284 284 284 284 283 282 282 281 281 280 280 280 279 279 278 277 277 276 275 274 273 272 272 271 270 269 268 267 266 265 264 264 263 262 262 260 259 258 257 255 254 253 251 250
278 279 280 281 282 283 283 284 284 284 285 286 286 287 288 288 288 289 289 290 290 290 290 289 288 289 289 288 287 287 287 286 286 286 286 287 287 287 287 287 288 288 288 288 288 288 288 287 287 286 286 285 285 284 284 283 283 282 282 282 282 281 281 281 280 280 279 279 278 278 277 276 274 273 272 272 271 270 268 267 266 265 265 264 264 263 263 262 262 261 260 259 258 257 256 254 252
281 282 282 283 283 283 283 284 284 285 286 287 288 288 289 289 290 290 291 291 291 291 290 289 289 290 290 289 289 288 287 286 286 287 287 287 287 288 288 288 289 289 289 289 289 288 288 288 287 287 286 285 285 284 283 283 282 282 282 282 282 282 282 282 281 280 280 280 279 278 277 276 275 274 273 271 270 268 267 266 265 265 264 263 263 263 263 263 262 262 261 261 260 259 258 257 255
282 282 282 282 283 283 284 285 286 287 287 288 288 289 289 290 290 291 292 292 292 292 291 290 291 291 291 290 290 289 288 287 287 287 288 288 288 289 289 290 290 290 290 290 290 290 289 289 288 287 286 285 285 284 284 283 283 282 282 282 282 282 282 282 281 281 280 280 279 278 278 277 276 275 273 271 270 268 267 266 266 265 264 264 263 263 263 263 263 262 262 262 261 260 259 258 257
281 281 282 283 284 285 286 287 287 288 288 288 289 289 290 290 291 292 293 293 292 292 291 291 291 291 291 291 290 289 288 288 289 289 289 289 290 291 291 291 292 291 291 291 290 291 291 290 289 288 286 285 285 284 284 283 283 283 283 283 283 283 283 282 281 280 279 279 279 279 279 278 277 276 274 272 271 269 268 267 267 266 266 265 265 264 264 263 263 263 263 263 262 262 261 260 258
281 282 283 284 286 286 287 287 288 288 288 289 289 290 290 291 292 293 293 293 292 291 291 291 291 291 291 291 291 290 290 290 291 291 291 292 292 293 292 292 292 291 292 292 292 292 291 291 290 288 287 286 285 284 284 284 283 284 284 284 284 284 284 283 281 280 279 278 279 279 279 278 278 276 275 273 272 271 270 269 269 269 268 268 267 266 266 265 264 264 264 263 263 263 262 261 260
282 283 285 286 287 287 287 288 288 288 289 289 290 291 292 292 293 293 293 293 292 291 291 291 292 292 292 292 292 291 292 293 293 293 293 294 294 293 293 292 292 292 293 293 293 292 291 290 289 288 287 287 286 285 284 284 284 284 284 285 284 284 283 282 281 280 279 279 280 280 280 280 279 279 278 276 275 274 273 272 272 271 271 271 271 270 269 268 267 266 266 265 265 264 263 262 262
284 285 286 287 287 287 288 288 288 289 290 290 291 292 293 293 293 294 294 293 293 292 292 292 293 294 294 294 293 293 293 294 294 294 294 294 294 293 293 294 294 295 294 294 293 292 291 290 289 288 288 287 286 286 285 284 284 284 284 284 282 282 281 281 281 281 281 281 282 283 282 282 282 281 280 280 278 277 276 276 275 275 274 274 274 274 273 273 272 271 270 269 268 267 266 265 264
286 286 287 287 287 288 288 289 289 290 291 291 292 293 293 293 294 294 295 295 294 294 294 295 295 295 295 294 293 294 293 294 294 295 295 295 295 295 295 296 296 296 295 294 293 291 290 289 288 288 287 287 286 285 285 284 284 283 282 280 278 279 280 280 281 282 283 283 283 283 282 282 282 281 281 281 280 279 278 278 277 277 277 276 276 276 275 275 274 274 273 272 271 271 270 269 268
286 287 288 288 288 289 289 289 289 290 291 292 292 293 294 294 295 295 296 296 295 295 295 296 296 296 295 294 294 294 295 295 296 296 296 296 296 297 298 298 298 297 295 293 292 291 291 290 289 288 287 286 286 285 284 284 283 281 277 275 277 279 280 281 282 282 282 282 281 281 281 281 280 280 280 280 280 279 278 278 277 277 276 276 275 275 275 274 274 274 273 273 272 272 271 271 270
287 288 288 288 289 289 289 289 289 290 291 292 293 294 295 295 296 297 297 297 296 295 296 296 296 296 295 295 295 296 296 297 297 297 297 298 298 299 299 299 297 295 294 293 293 292 291 290 290 289 288 287 286 285 284 282 280 277 274 275 277 279 281 282 282 281 281 280 280 280 280 280 280 280 280 280 279 279 278 278 277 276 276 275 275 274 274 273 273 273 273 273 272 272 271 271 270
288 288 288 287 287 287 288 289 290 291 292 293 294 295 295 296 297 297 297 297 296 295 296 296 296 296 296 296 297 298 298 298 298 298 299 299 300 300 299 298 296 294 294 294 294 293 292 291 291 290 289 287 286 284 283 280 277 275 275 277 279 280 281 281 281 281 281 280 280 280 280 281 281 280 280 280 280 279 279 278 277 276 276 275 274 274 273 273 273 272 272 272 272 271 271 271 270
287 287 287 286 286 286 287 289 291 292 292 293 294 295 296 297 297 297 297 297 295 295 296 297 297 297 297 297 298 298 299 299 299 300 301 300 300 299 298 296 295 296 296 295 294 293 293 292 291 290 288 287 285 283 281 279 278 277 278 279 281 281 282 282 281 281 281 281 281 281 282 282 282 281 281 280 280 279 278 278 277 276 275 274 273 273 272 272 272 272 272 271 271 271 271 271 270
286 286 286 285 285 287 288 290 290 291 292 292 294 295 296 297 298 297 298 297 296 297 297 298 298 298 298 298 298 299 299 300 300 301 301 300 300 298 296 297 298 298 296 295 295 295 294 293 291 290 289 288 285 283 282 281 281 280 280 281 281 282 282 282 282 282 282 282 282 283 283 282 282 282 281 280 280 279 278 278 277 276 274 274 273 272 271 271 271 271 271 271 271 271 271 270 270
286 285 285 284 286 288 289 290 290 291 291 292 293 295 295 296 297 297 298 298 298 298 298 299 298 298 298 298 298 299 300 301 302 301 300 300 298 297 297 299 298 297 296 296 297 296 296 295 294 292 290 288 287 286 284 283 282 282 282 282 281 281 281 282 282 283 283 283 283 283 283 283 283 282 282 281 280 279 279 278 277 275 274 274 273 272 271 271 271 270 270 270 270 270 270 270 270
285 285 285 286 287 288 290 291 291 291 291 292 294 295 296 296 297 297 298 298 298 297 298 298 298 297 297 298 299 300 301 302 302 301 301 299 297 298 299 299 297 296 297 297 297 298 297 296 295 293 290 288 287 287 286 285 284 283 283 283 282 282 282 282 283 283 283 283 283 283 284 284 284 283 283 283 281 280 279 278 277 276 275 274 274 273 273 272 271 271 271 270 270 270 270 269 269
285 285 285 286 287 288 290 291 291 291 292 294 296 297 297 297 298 298 298 298 298 297 297 297 297 296 296 298 299 301 302 302 302 301 299 297 298 300 299 297 297 297 297 298 298 298 296 295 293 292 290 289 287 287 287 286 285 284 284 284 283 283 284 284 284 284 284 284 284 284 284 285 285 285 285 284 283 282 281 280 278 277 276 275 275 275 274 273 273 272 271 271 270 270 270 269 268
286 287 288 288 289 290 291 291 291 292 294 295 297 298 298 297 298 298 298 298 298 297 297 297 296 296 298 299 301 302 303 302 302 300 296 298 300 299 296 297 298 297 298 298 297 296 295 294 292 291 291 290 290 289 288 288 287 286 285 284 284 285 285 286 286 285 285 285 285 285 286 286 286 286 286 285 284 283 282 281 280 278 277 277 276 276 275 275 274 273 273 272 271 271 270 269 268
286 287 289 290 291 291 292 292 292 294 296 297 298 299 298 298 298 298 297 297 296 296 297 297 296 298 300 301 302 303 302 303 300 296 297 300 299 296 297 298 297 298 298 297 296 295 294 293 293 292 292 292 292 291 291 290 289 288 287 287 286 286 287 286 286 286 285 285 285 285 286 286 286 286 285 285 284 284 283 282 280 279 279 278 277 277 276 276 276 275 274 274 273 271 270 269 268
288 289 290 291 292 292 293 293 293 294 296 297 297 298 297 297 297 298 297 297 296 296 296 296 298 300 301 302 303 303 303 302 296 295 299 299 295 296 298 298 297 297 296 295 295 295 294 294 294 294 294 293 293 292 292 291 290 289 289 288 288 287 287 287 286 286 285 285 285 285 285 285 285 285 284 284 284 284 283 282 281 280 279 279 279 278 278 278 277 277 276 275 274 272 271 270 269
291 291 292 292 293 293 294 294 295 295 296 296 297 298 297 297 297 297 297 298 298 298 298 298 300 301 302 303 303 303 304 298 294 297 299 295 295 297 297 297 296 295 294 295 295 295 295 295 295 295 295 294 294 293 292 291 290 290 289 289 288 288 287 287 286 286 286 286 285 286 286 285 285 285 284 284 284 284 283 282 281 281 281 281 281 280 280 279 279 279 278 277 275 274 272 271 269
293 293 294 294 294 295 295 295 295 295 296 297 297 298 298 297 297 297 298 298 299 299 300 300 301 302 303 304 304 304 301 294 293 298 296 294 296 297 296 295 294 293 295 296 296 296 296 296 296 296 296 295 294 294 293 292 291 291 290 289 288 288 287 287 286 286 286 286 286 286 286 285 285 285 284 284 284 284 284 283 283 283 283 283 283 283 282 282 281 280 279 278 277 276 274 272 270
295 295 296 296 296 296 295 295 295 296 297 298 298 299 298 298 298 297 298 299 299 300 301 302 303 304 305 305 305 303 296 291 294 297 294 295 296 295 295 293 292 294 295 296 296 296 296 297 297 297 296 295 294 293 292 291 291 290 290 289 289 288 288 287 287 287 287 287 287 287 286 285 285 285 284 284 285 285 285 285 285 285 285 285 285 285 284 284 283 282 281 280 278 277 276 274 272
296 297 297 297 297 296 296 296 296 297 298 298 299 299 298 297 297 298 299 300 300 301 302 303 303 304 305 305 304 298 291 291 296 296 295 295 294 294 294 293 295 296 296 296 296 296 296 296 296 295 294 293 293 292 291 290 290 290 290 290 290 290 289 289 288 288 288 288 288 287 287 286 286 286 287 287 287 287 287 286 286 286 287 286 286 286 286 285 284 283 282 281 279 278 276 275 273
297 298 298 298 298 298 298 298 298 299 299 299 298 298 298 298 298 299 300 300 300 301 302 302 303 304 305 304 300 292 288 292 296 296 296 295 293 293 293 294 295 295 295 295 295 295 295 294 294 293 293 292 292 292 292 292 292 292 292 292 292 292 291 291 290 289 288 288 288 288 288 288 289 289 289 289 289 288 288 288 288 288 288 288 287 287 287 286 286 285 283 282 280 279 277 275 273
298 298 298 299 300 300 300 300 300 301 301 300 299 299 299 299 298 299 299 299 301 302 302 302 304 306 305 301 294 289 290 294 296 297 296 295 294 293 293 294 294 293 294 293 293 293 292 292 292 292 292 292 292 292 292 292 293 293 293 293 293 293 293 292 291 290 290 289 289 289 289 289 289 290 290 290 290 289 289 289 289 289 288 288 288 288 288 287 287 285 284 283 281 279 277 276 274
298 298 299 300 301 301 302 301 301 302 302 301 300 300 301 299 298 299 299 300 302 301 301 304 308 307 304 298 293 291 294 297 298 298 296 295 294 294 294 294 293 293 293 293 293 293 292 292 292 293 293 293 293 294 294 294 293 293 293 293 292 292 292 292 292 291 291 290 290 290 289 289 289 289 290 290 290 290 290 289 289 289 289 289 289 288 288 288 287 286 285 283 281 280 278 276 274
299 299 300 301 302 302 302 302 303 303 303 302 302 302 302 300 299 300 301 302 302 301 304 309 309 305 301 297 295 296 298 299 300 299 297 296 295 295 295 294 294 294 294 294 294 294 294 294 295 295 295 295 295 295 295 295 294 294 293 293 293 292 292 292 292 291 291 291 291 290 290 290 290 290 290 290 290 290 290 290 289 289 289 289 288 288 288 287 286 285 284 283 281 280 278 276 275
300 300 301 301 302 302 303 303 304 304 304 304 304 304 303 301 300 301 303 304 303 304 308 309 305 302 299 297 297 298 299 299 299 298 297 297 297 297 297 297 297 297 296 296 296 296 296 297 297 297 297 297 297 296 296 295 294 294 294 293 293 293 293 292 292 292 291 291 290 290 290 290 290 290 290 290 290 290 290 290 290 289 289 289 288 288 287 286 285 284 283 282 281 279 278 276 274
301 301 301 301 302 303 303 304 304 305 305 305 304 303 302 302 302 303 305 305 304 306 307 305 302 301 299 297 297 297 298 297 296 295 296 297 297 298 298 299 299 298 298 298 298 298 298 299 299 298 298 297 297 296 296 295 295 294 294 293 293 293 293 293 292 292 291 291 291 291 290 290 290 290 290 290 291 291 291 291 291 290 290 289 288 287 286 286 285 284 282 281 280 279 277 276 274
301 301 301 302 303 303 304 305 305 306 306 306 305 303 302 303 302 304 305 303 302 303 303 301 301 301 299 297 296 295 295 294 293 294 295 296 296 297 298 298 298 298 298 298 298 298 299 299 298 298 297 297 296 296 295 295 295 294 294 294 294 294 294 293 293 293 292 292 292 292 292 291 291 291 291 291 291 291 291 291 291 291 290 289 288 287 286 285 284 283 282 280 280 279 277 276 274
301 301 301 302 303 304 305 306 307 307 306 306 305 303 302 301 301 303 304 301 301 301 299 297 297 296 295 294 294 294 294 293 294 294 295 295 296 296 297 297 297 297 297 297 298 298 298 298 297 297 296 296 296 295 295 295 295 295 295 295 295 295 295 295 294 294 294 293 293 293 293 293 292 292 292 292 292 291 291 291 291 290 289 288 287 286 285 284 283 282 281 280 279 278 277 276 274
301 301 301 302 304 304 306 307 307 306 305 305 304 303 302 301 302 304 304 302 303 301 299 298 296 294 294 294 294 295 295 295 295 296 296 297 297 297 298 297 297 297 297 297 297 297 297 296 296 296 296 296 295 295 296 296 296 296 296 296 296 296 296 296 295 295 295 295 295 294 294 294 293 293 293 292 292 291 291 290 290 289 288 287 286 285 284 283 282 281 280 279 279 278 277 276 275
301 302 302 304 305 306 307 307 306 305 306 306 305 304 303 303 304 305 302 301 301 301 300 300 299 297 297 297 296 296 296 297 297 297 297 298 297 297 297 297 296 296 297 297 297 297 296 296 297 297 297 297 297 297 297 297 298 297 297 297 296 296 296 296 296 296 296 296 295 295 295 295 294 293 293 292 292 291 290 290 288 287 286 285 284 283 282 281 280 280 279 278 277 277 276 275 274
301 302 303 305 306 306 306 305 305 306 307 307 306 304 303 303 304 303 301 300 300 299 300 300 299 299 299 299 299 299 299 299 299 298 298 298 297 297 297 297 297 297 297 297 297 297 297 297 298 298 298 298 298 298 298 298 297 297 297 297 297 296 296 296 296 296 296 296 296 296 296 295 294 294 293 292 291 290 289 288 287 286 285 284 283 282 281 280 279 278 278 277 276 276 275 274 274
302 303 304 306 306 306 306 306 307 307 308 308 305 303 302 301 302 301 300 300 300 300 301 300 300 300 300 300 300 300 300 300 299 299 299 299 298 298 298 298 298 298 298 298 298 298 298 299 299 299 299 298 298 298 297 297 297 297 297 297 297 297 297 297 297 297 297 297 297 297 296 295 295 294 293 292 290 289 288 287 286 285 283 282 281 280 279 279 278 277 277 276 276 275 274 274 273
304 305 306 306 306 306 307 308 309 308 308 307 304 302 301 300 301 300 300 301 301 301 301 300 300 300 300 300 300 301 300 300 300 300 300 300 299 299 299 299 299 299 299 300 300 299 299 299 299 299 298 298 297 297 297 297 297 297 297 297 298 298 298 298 298 298 298 298 298 297 296 295 294 293 292 291 290 289 287 285 284 283 282 281 280 279 279 278 277 277 276 276 275 274 274 273 273
305 306 306 306 306 306 307 309 308 307 307 305 301 300 299 299 299 299 299 300 300 300 300 300 300 299 299 300 300 300 299 300 300 301 300 300 300 300 300 300 300 300 300 300 300 299 299 298 298 298 298 298 298 298 298 298 298 298 299 299 299 299 299 299 299 298 298 297 297 296 295 294 293 293 291 290 289 288 286 285 284 283 282 281 280 280 279 278 277 277 276 275 275 274 273 273 272
306 307 306 306 307 307 308 308 307 305 305 303 301 300 300 300 299 299 299 300 301 301 301 301 300 299 299 300 300 300 300 301 301 301 301 301 301 301 301 301 301 300 300 299 299 299 299 298 298 298 298 298 299 299 299 299 299 300 300 300 300 300 299 299 298 298 297 296 296 295 295 294 294 293 292 291 289 288 286 285 284 283 282 281 281 280 279 278 278 277 276 275 274 273 273 272 272
307 307 307 307 307 307 308 307 305 303 302 302 301 300 301 301 300 300 300 300 300 300 300 299 298 298 300 300 300 301 301 302 302 302 302 302 302 302 302 302 301 301 300 300 300 299 299 299 299 299 300 300 300 300 301 301 301 301 301 301 300 300 299 299 298 298 297 297 296 295 295 295 294 293 292 291 289 288 287 285 284 283 282 281 280 279 279 278 277 277 276 275 274 273 272 271 271
307 307 307 307 307 307 307 305 304 303 302 302 301 301 301 300 299 301 302 300 300 300 300 299 299 300 301 301 301 302 302 302 302 302 302 302 302 301 301 301 301 301 301 300 300 300 300 300 301 301 301 302 302 302 302 302 302 301 301 301 300 300 299 299 298 298 297 297 297 296 295 294 293 292 291 290 289 288 287 286 285 284 282 281 280 279 278 277 277 276 275 274 273 272 272 270 269
306 307 306 306 305 305 305 304 304 304 305 304 303 304 304 301 301 303 303 302 303 304 302 301 302 303 302 302 302 302 302 301 301 301 301 301 301 301 301 301 301 301 301 300 301 301 302 302 302 303 303 303 303 303 303 302 302 301 301 300 300 299 299 299 298 298 298 297 297 295 294 293 292 291 289 288 288 287 286 285 284 283 282 281 280 279 278 277 276 275 275 274 273 272 271 269 268
307 306 305 304 303 303 302 302 303 304 305 304 303 305 304 302 303 304 304 304 305 305 303 303 303 303 302 302 302 302 301 301 301 301 302 302 301 301 301 301 301 301 301 302 303 303 303 303 303 304 304 303 303 303 302 302 301 301 301 300 300 299 299 299 299 298 298 297 296 295 294 292 291 290 288 287 286 286 285 284 283 282 282 281 280 280 278 277 276 276 275 274 273 272 270 269 267